| time (UTC) | temp F | wind direction | speed knots | gust knots | rain 1hr in | rain 24hr in | rain mn in | humidity % | barometer mb |
| 20260503021535 | 42 | 144 | 0.0 | 3.5 | 0.00 | 0.00 | 0.00 | 58 | 1015.6 |
| 20260503020115 | 42 | 0 | 0.0 | 3.5 | 0.00 | 0.00 | 0.00 | 57 | 1015.5 |
| 20260503014541 | 43 | 0 | 0.9 | 3.5 | 0.00 | 0.00 | 0.00 | 56 | 1015.4 |
| 20260503013038 | 43 | 139 | 1.7 | 6.1 | 0.00 | 0.00 | 0.00 | 55 | 1015.2 |
| 20260503011558 | 44 | 0 | 0.9 | 5.2 | 0.00 | 0.00 | 0.00 | 54 | 1015.0 |
| 20260503010043 | 44 | 151 | 0.9 | 6.1 | 0.00 | 0.00 | 0.00 | 52 | 1014.9 |
| 20260503004543 | 45 | 0 | 0.9 | 7.0 | 0.00 | 0.00 | 0.00 | 51 | 1014.8 |
| 20260503003053 | 45 | 170 | 3.5 | 7.8 | 0.00 | 0.00 | 0.00 | 50 | 1014.7 |
| 20260503001538 | 46 | 185 | 1.7 | 9.6 | 0.00 | 0.00 | 0.00 | 49 | 1014.6 |
| 20260503000042 | 47 | 131 | 2.6 | 9.6 | 0.00 | 0.00 | 0.00 | 47 | 1014.5 |
| 20260502234537 | 47 | 103 | 2.6 | 10.4 | 0.00 | 0.00 | 0.00 | 46 | 1014.2 |
| 20260502233042 | 48 | 143 | 4.3 | 11.3 | 0.00 | 0.00 | 0.00 | 45 | 1014.2 |
| 20260502231545 | 48 | 113 | 3.5 | 12.2 | 0.00 | 0.00 | 0.00 | 45 | 1014.1 |
| 20260502230043 | 48 | 190 | 3.5 | 10.4 | 0.00 | 0.00 | 0.00 | 46 | 1014.1 |
| 20260502224538 | 49 | 208 | 3.5 | 12.2 | 0.00 | 0.00 | 0.00 | 45 | 1014.0 |
| 20260502223037 | 49 | 126 | 3.5 | 9.6 | 0.00 | 0.00 | 0.00 | 44 | 1014.0 |
| 20260502221536 | 48 | 111 | 2.6 | 9.6 | 0.00 | 0.00 | 0.00 | 45 | 1013.9 |
| 20260502220043 | 49 | 195 | 5.2 | 11.3 | 0.00 | 0.00 | 0.00 | 44 | 1013.7 |
| 20260502214540 | 48 | 175 | 4.3 | 10.4 | 0.00 | 0.00 | 0.00 | 45 | 1013.7 |
| 20260502213043 | 49 | 145 | 3.5 | 8.7 | 0.00 | 0.00 | 0.00 | 46 | 1013.5 |
| 20260502211551 | 49 | 175 | 2.6 | 7.0 | 0.00 | 0.00 | 0.00 | 46 | 1013.6 |
| 20260502210039 | 49 | 141 | 3.5 | 10.4 | 0.00 | 0.00 | 0.00 | 50 | 1013.5 |
| 20260502204537 | 50 | 135 | 4.3 | 12.2 | 0.00 | 0.00 | 0.00 | 46 | 1013.8 |
| 20260502203036 | 50 | 131 | 7.0 | 11.3 | 0.00 | 0.00 | 0.00 | 42 | 1013.6 |
| 20260502201535 | 50 | 110 | 5.2 | 13.0 | 0.00 | 0.00 | 0.00 | 43 | 1013.7 |
| 20260502200045 | 50 | 105 | 4.3 | 12.2 | 0.00 | 0.00 | 0.00 | 43 | 1013.7 |
| 20260502194538 | 51 | 149 | 6.1 | 15.6 | 0.00 | 0.00 | 0.00 | 41 | 1013.8 |
| 20260502193046 | 50 | 108 | 7.8 | 17.4 | 0.00 | 0.00 | 0.00 | 41 | 1013.8 |
| 20260502191555 | 51 | 108 | 7.0 | 13.9 | 0.00 | 0.00 | 0.00 | 43 | 1013.7 |
| 20260502190043 | 51 | 100 | 4.3 | 10.4 | 0.00 | 0.00 | 0.00 | 40 | 1013.7 |
| 20260502184543 | 50 | 98 | 5.2 | 13.0 | 0.00 | 0.00 | 0.00 | 43 | 1013.8 |
| 20260502183040 | 51 | 175 | 6.1 | 13.0 | 0.00 | 0.00 | 0.00 | 41 | 1013.8 |
| 20260502181551 | 51 | 166 | 4.3 | 13.0 | 0.00 | 0.00 | 0.00 | 42 | 1013.9 |
| 20260502163036 | 51 | 191 | 5.2 | 12.2 | 0.00 | 0.00 | 0.00 | 41 | 1014.5 |
| 20260502161544 | 51 | 83 | 3.5 | 10.4 | 0.00 | 0.00 | 0.00 | 42 | 1014.5 |
| 20260502151550 | 49 | 193 | 3.5 | 10.4 | 0.00 | 0.00 | 0.00 | 44 | 1014.9 |
| 20260502123045 | 40 | 175 | 1.7 | 4.3 | 0.00 | 0.00 | 0.00 | 71 | 1015.1 |
| 20260502121542 | 40 | 99 | 0.9 | 4.3 | 0.00 | 0.00 | 0.00 | 72 | 1015.1 |
| 20260502114545 | 39 | 101 | 0.0 | 2.6 | 0.00 | 0.00 | 0.00 | 72 | 1015.3 |
| 20260502113040 | 39 | 169 | 0.9 | 3.5 | 0.00 | 0.00 | 0.00 | 72 | 1015.2 |
| 20260502111546 | 39 | 116 | 0.0 | 2.6 | 0.00 | 0.00 | 0.00 | 72 | 1014.9 |
| 20260502110042 | 39 | 185 | 0.9 | 2.6 | 0.00 | 0.00 | 0.00 | 71 | 1015.0 |
| 20260502104541 | 39 | 0 | 0.9 | 3.5 | 0.00 | 0.00 | 0.00 | 71 | 1014.9 |
| 20260502103043 | 39 | 156 | 0.9 | 3.5 | 0.00 | 0.00 | 0.00 | 70 | 1014.7 |
| 20260502101537 | 40 | 185 | 0.9 | 3.5 | 0.00 | 0.00 | 0.00 | 69 | 1015.0 |
| 20260502070042 | 44 | 118 | 2.6 | 6.1 | 0.00 | 0.00 | 0.00 | 59 | 1014.7 |
| 20260502064538 | 44 | 185 | 1.7 | 5.2 | 0.00 | 0.00 | 0.00 | 60 | 1014.7 |
| 20260502063054 | 44 | 168 | 3.5 | 7.8 | 0.00 | 0.00 | 0.00 | 62 | 1014.9 |
| 20260502061541 | 45 | 143 | 1.7 | 7.0 | 0.00 | 0.00 | 0.00 | 70 | 1015.0 |
| 20260502060037 | 45 | 118 | 3.5 | 7.8 | 0.00 | 0.00 | 0.00 | 71 | 1015.1 |
| 20260502054546 | 46 | 135 | 1.7 | 7.0 | 0.00 | 0.00 | 0.00 | 72 | 1015.1 |
| 20260502053053 | 46 | 97 | 1.7 | 6.1 | 0.00 | 0.00 | 0.00 | 71 | 1015.0 |
| 20260502051537 | 46 | 189 | 3.5 | 7.0 | 0.00 | 0.00 | 0.00 | 71 | 1015.1 |
| 20260502050035 | 46 | 180 | 1.7 | 7.0 | 0.00 | 0.00 | 0.00 | 70 | 1015.1 |
| 20260502044544 | 47 | 141 | 2.6 | 8.7 | 0.00 | 0.00 | 0.00 | 69 | 1015.2 |
| 20260502043044 | 47 | 164 | 3.5 | 7.0 | 0.00 | 0.00 | 0.00 | 68 | 1015.4 |
| 20260502041538 | 47 | 156 | 3.5 | 7.8 | 0.00 | 0.00 | 0.00 | 67 | 1015.4 |
| 20260502040040 | 47 | 166 | 1.7 | 10.4 | 0.00 | 0.00 | 0.00 | 66 | 1015.3 |
| 20260502034537 | 48 | 166 | 4.3 | 7.8 | 0.00 | 0.00 | 0.00 | 66 | 1015.3 |
| 20260502033040 | 48 | 170 | 2.6 | 9.6 | 0.00 | 0.00 | 0.00 | 67 | 1015.5 |
| 20260502031536 | 49 | 175 | 4.3 | 10.4 | 0.00 | 0.00 | 0.00 | 66 | 1015.4 |
| 20260502030048 | 49 | 139 | 3.5 | 8.7 | 0.00 | 0.00 | 0.00 | 66 | 1015.4 |
| 20260502024541 | 50 | 123 | 2.6 | 9.6 | 0.00 | 0.00 | 0.00 | 65 | 1015.3 |
| 20260502023039 | 50 | 175 | 3.5 | 8.7 | 0.00 | 0.00 | 0.00 | 65 | 1015.0 |